AA6MV Weather Reports


time (UTC)temp
F
wind
direction
speed
knots
gust
knots
rain 1hr
in
rain 24hr
in
rain mn
in
humidity
%
barometer
mb
20260504081558 62 296 1.7 6.1 0.00 0.00 0.00 45 1004.8
20260504044548 66 17 0.0 0.0 0.00 0.00 0.00 30 1006.1
20260504043157 66 18 0.0 0.0 0.00 0.00 0.00 30 1005.9
20260504041525 67 1 0.0 5.2 0.00 0.00 0.00 28 1005.4
20260504040133 67 359 0.0 5.2 0.00 0.00 0.00 28 1005.4
20260504034519 68 1 2.6 10.4 0.00 0.00 0.00 27 1005.0
20260504033015 69 2 5.2 10.4 0.00 0.00 0.00 26 1004.8
20260504031515 69 359 3.5 10.4 0.00 0.00 0.00 26 1004.6
20260504030012 69 27 4.3 8.7 0.00 0.00 0.00 26 1004.4
20260504024508 70 337 3.5 8.7 0.00 0.00 0.00 26 1003.8
20260504023004 71 345 4.3 9.6 0.00 0.00 0.00 25 1003.6
20260504021542 71 12 5.2 10.4 0.00 0.00 0.00 23 1003.3
20260504020042 72 1 3.5 9.6 0.00 0.00 0.00 23 1003.2
20260504014535 73 1 3.5 8.7 0.00 0.00 0.00 23 1003.1
20260504013035 73 335 2.6 10.4 0.00 0.00 0.00 24 1003.5
20260504011639 74 8 4.3 10.4 0.00 0.00 0.00 24 1003.5
20260504010138 74 314 3.5 13.9 0.00 0.00 0.00 24 1003.5
20260504004530 75 338 1.7 8.7 0.00 0.00 0.00 25 1003.3
20260504003039 75 360 4.3 9.6 0.00 0.00 0.00 25 1003.6
20260504001528 76 295 2.6 7.8 0.00 0.00 0.00 25 1003.2
20260504000049 76 1 3.5 7.8 0.00 0.00 0.00 25 1003.4
20260503234508 76 35 2.6 10.4 0.00 0.00 0.00 25 1003.5
20260503233007 77 11 5.2 11.3 0.00 0.00 0.00 24 1003.6
20260503231501 78 318 2.6 8.7 0.00 0.00 0.00 23 1003.9
20260503224635 78 314 1.7 8.7 0.00 0.00 0.00 23 1004.0
20260503223013 80 305 0.9 9.6 0.00 0.00 0.00 23 1004.0
20260503221510 80 314 1.7 9.6 0.00 0.00 0.00 22 1004.1
20260503220015 78 23 1.7 11.3 0.00 0.00 0.00 24 1004.4
20260503214509 77 1 2.6 10.4 0.00 0.00 0.00 26 1004.3
20260503213104 79 330 0.9 7.8 0.00 0.00 0.00 26 1004.5
20260503213006 79 273 0.0 8.7 0.00 0.00 0.00 26 1004.6
20260503211608 79 317 1.7 6.1 0.00 0.00 0.00 27 1004.8
20260503210050 79 34 0.9 7.8 0.00 0.00 0.00 26 1005.2
20260503203038 78 339 2.6 7.0 0.00 0.00 0.00 26 1005.5
20260503201512 77 332 0.0 6.1 0.00 0.00 0.00 33 1005.7
20260503200027 76 195 4.3 8.7 0.00 0.00 0.00 35 1005.9
20260503194523 76 276 4.3 9.6 0.00 0.00 0.00 34 1006.1
20260503193022 77 332 2.6 8.7 0.00 0.00 0.00 34 1006.3
20260503190021 77 314 0.0 10.4 0.00 0.00 0.00 34 1006.6
20260503184519 76 348 0.9 7.0 0.00 0.00 0.00 36 1007.0
20260503183031 75 235 1.7 7.8 0.00 0.00 0.00 37 1007.3
20260503181528 74 279 4.3 9.6 0.00 0.00 0.00 37 1007.8
20260503180028 73 189 2.6 7.8 0.00 0.00 0.00 39 1008.0
20260503174519 72 249 2.6 9.6 0.00 0.00 0.00 42 1008.2
20260503173046 72 248 4.3 8.7 0.00 0.00 0.00 41 1008.3
20260503171536 72 295 5.2 9.6 0.00 0.00 0.00 41 1008.2
20260503170131 71 209 4.3 9.6 0.00 0.00 0.00 42 1008.0